Home   Weather   Reston   Past weeks
Flag for USA

Past Weather in Reston, Virginia, USA — Yesterday and Last 2 Weeks

Now
39 °F

Passing clouds.


Feels Like: 30 °F
Forecast: 50 / 35 °F
Wind: 16 mph from Northeast

Location: Washington-Dulles International Airport

Current Time: Mar 26, 2019 at 11:07:19 am

Latest Report: Mar 26, 2019 at 9:52 am


Visibility: 10 mi

Pressure: 30.30 "Hg

Humidity: 31%

Dew Point: 11 °F

Location of RestonLocation

Past Weather in Reston — Graph

°F

Reston Temperature Yesterday

Maximum temperature yesterday: 62 °F (at 10:52 am)
Minimum temperature yesterday: 42 °F (at 7:52 am)
Average temperature yesterday: 50 °F

High & Low Weather Summary for the Past Weeks

 TemperatureHumidityPressure
High76 °F (Mar 15, 3:52 pm)93% (Mar 21, 12:52 pm)30.49 "Hg (Mar 21, 12:52 pm)
Low24 °F (Mar 13, 5:52 am)18% (Mar 24, 3:52 pm)29.59 "Hg (Mar 22, 12:52 am)
Average46 °F52%30.11 "Hg
* Reported Mar 11 9:52 am — Mar 26 9:52 am, Reston. Weather by CustomWeather, © 2019

Note: Actual official high and low records may vary slightly from our data, if they occured in-between our weather recording intervals... More about our weather records

Advertising

Reston Weather History for the Previous 24 Hours

Scroll right to see more
 ConditionsComfort  
Time TempWeatherWind HumidityBarometerVisibility
9:52 am
Tue, Mar 26
39 °FPassing clouds.16 mph31%30.30 "Hg10 mi
8:52 am37 °FPassing clouds.16 mph34%30.28 "Hg10 mi
7:52 am35 °FScattered clouds.13 mph40%30.24 "Hg10 mi
6:52 am35 °FPassing clouds.15 mph46%30.20 "Hg10 mi
5:52 am38 °FPartly cloudy.13 mph53%30.17 "Hg10 mi
4:52 am40 °FOvercast.14 mph70%30.14 "Hg10 mi
3:52 am40 °FMostly cloudy.10 mph83%30.12 "Hg10 mi
2:52 am40 °FMostly cloudy.9 mph89%30.11 "Hg10 mi
1:52 am40 °FOvercast.7 mph89%30.10 "Hg7 mi
12:52 am42 °FOvercast.12 mph79%30.10 "Hg10 mi
11:52 pm
Mon, Mar 25
42 °FMostly cloudy.12 mph82%30.09 "Hg9 mi
10:52 pm43 °FOvercast.12 mph79%30.08 "Hg9 mi
9:52 pm44 °FOvercast.12 mph79%30.07 "Hg10 mi
8:52 pm45 °FOvercast.12 mph80%30.04 "Hg10 mi
7:52 pm47 °FMostly cloudy.13 mph83%30.03 "Hg9 mi
6:52 pm48 °FMostly cloudy.13 mph83%30.02 "Hg7 mi
6:18 pm49 °FLight rain. Mostly cloudy.9 mph80%30.01 "Hg10 mi
5:52 pm50 °FMore clouds than sun.12 mph74%30.01 "Hg10 mi
4:52 pm54 °FMostly cloudy.16 mph59%29.97 "Hg10 mi
3:52 pm55 °FLight rain. More clouds than sun.10 mph57%29.99 "Hg10 mi
2:52 pm57 °FMore clouds than sun.12 mph49%30.00 "Hg10 mi
1:52 pm59 °FMostly cloudy.10 mph46%30.00 "Hg10 mi
12:52 pm61 °FMostly cloudy.6 mph35%30.02 "Hg10 mi
11:52 am61 °FMostly cloudy.5 mph36%30.02 "Hg10 mi
Weather by CustomWeather, © 2019

See weather overview